[[{"header":{"parameterUnit":"m.s-1","parameterCategory":1,"la1":30.2991,"la2":30.254,"lo1":-89.0895,"lo2":-89.0444,"dy":0.0017,"dx":0.0017,"nx":28,"ny":28,"refTime":"2024-03-27T09:00:00:Z","depth":0,"parameterNumber":2,"parameterNumberName":"U-component_of_WINDS"},"data":[0,0,0,0,0,0,0,0,0,0,0,0,0,0,0,0,0,0,0,0,0,0,0,0,0,0,0,0,0,0,0,0,0,0,0,0,0,0,0,0,0,0,0,0,0,0,0,0,0,0,0,0,0,0,0,0,0,0,1.3841,1.3842,0,1.3878,1.3879,1.3879,1.3885,1.3885,1.3885,1.3885,1.3921,1.3922,1.3923,0,0,0,0,0,0,0,0,0,0,0,0,0,1.3775,1.3776,1.3841,1.3842,1.3842,1.3878,1.3879,1.3879,1.3886,1.3885,1.3885,1.3884,1.392,1.3922,1.3924,0,0,0,0,0,0,0,0,0,0,0,0,0,1.3807,1.3777,1.3841,1.385,1.3851,1.3878,1.3879,1.388,1.3886,1.3885,1.3885,1.3884,1.392,1.3922,1.3924,1.3945,0,0,1.3929,1.393,0,0,0,0,0,0,0,0,1.3805,1.381,1.3848,1.3849,1.3851,1.3877,1.3869,1.3901,1.3886,1.3872,1.3885,1.3884,1.3907,1.391,1.3917,1.3947,1.3948,1.393,1.3931,1.3932,1.3932,0,0,0,0,0,0,0,1.3803,1.3808,1.3856,1.3849,1.385,1.3851,1.3856,1.3875,1.3892,1.3873,1.3874,1.3878,1.3907,1.3916,1.3918,1.3949,1.393,1.3931,1.3932,1.3933,1.3998,1.3999,0,0,0,0,0,0,1.38,1.3806,1.3855,1.3857,1.3826,1.3853,1.3858,1.3869,1.3891,1.3894,1.3879,1.3879,1.3913,1.3916,1.392,1.3946,1.3932,1.3933,1.3934,1.3997,1.3998,1.3999,0,0,0,0,0,0,1.3798,1.3804,1.3853,1.3832,1.3838,1.3855,1.3867,1.387,1.3878,1.3895,1.3898,1.3884,1.3912,1.3917,1.3939,1.3947,1.3934,1.3936,1.3997,1.3998,1.3998,1.3999,0,0,0,0,0,0,1.3796,1.3803,1.3811,1.3832,1.3839,1.3872,1.3868,1.3871,1.3882,1.3882,1.3902,1.3904,1.3912,1.3936,1.3941,1.395,1.3937,1.3996,1.3997,1.3998,1.3998,1.4,1.4001,0,0,0,0,0,1.3794,1.381,1.3812,1.3818,1.385,1.3872,1.3877,1.3886,1.3882,1.3891,1.3902,1.3904,1.3946,1.3938,1.3944,1.3953,1.3995,1.3997,1.3998,1.3998,1.4,1.4001,0,0,0,0,0,0,1.3789,1.3812,1.3815,1.3838,1.3853,1.3873,1.3884,1.3888,1.3904,1.3903,1.3914,1.3918,1.3939,1.3949,1.394,1.3976,1.3971,1.3973,1.3968,1.397,1.3972,1.3969,1.3939,0,0,0,0,0,1.379,1.3807,1.3827,1.3845,1.3853,1.3867,1.3877,1.3884,1.3899,1.3906,1.3918,1.3933,1.395,1.3961,1.3977,1.4,1.4005,1.401,1.4011,1.4012,1.4014,1.4027,1.403,1.4003,1.4003,1.4003,0,0,1.3794,1.3809,1.3818,1.3845,1.3857,1.3874,1.3872,1.389,1.3902,1.3908,1.393,1.394,1.3957,1.398,1.3991,1.3988,1.4023,1.4014,1.4015,1.4016,1.4029,1.4032,1.4034,1.4004,1.4004,1.4004,0,0,1.3808,1.3821,1.3838,1.3851,1.3871,1.3881,1.3885,1.3905,1.3912,1.3934,1.3939,1.3954,1.3983,1.3995,1.4005,1.4027,1.4029,1.4032,1.4039,1.4052,1.4054,1.4056,1.4063,1.4066,1.4034,1.4034,1.4034,0,1.3809,1.3835,1.3846,1.3864,1.3876,1.3883,1.39,1.3912,1.3936,1.3943,1.3941,1.3978,1.399,1.4016,1.4022,1.403,1.4035,1.4029,1.4053,1.4055,1.4057,1.4064,1.4067,1.4034,1.4034,1.4034,1.4034,0,1.3836,1.3854,1.3865,1.3889,1.3902,1.3919,1.3933,1.3945,1.395,1.3961,1.3983,1.3999,1.4019,1.4026,1.4031,1.4053,1.4051,1.4051,1.4045,1.4059,1.4066,1.4069,1.4034,1.4034,1.4034,1.4034,0,0,1.3846,1.3877,1.3881,1.3892,1.3915,1.3929,1.3947,1.3968,1.3977,1.3994,1.4009,1.4034,1.4035,1.4046,1.4053,1.4065,1.4081,1.4063,1.4064,1.4065,1.4106,1.4105,1.4108,1.4083,1.4084,1.4084,1.4104,0,1.3863,1.3896,1.3907,1.3934,1.3951,1.3959,1.3975,1.3991,1.4001,1.4017,1.4029,1.4046,1.4045,1.4052,1.4064,1.4076,1.4089,1.4075,1.4097,1.4098,1.4091,1.4112,1.4111,1.413,1.4107,1.4108,1.4108,0,1.3887,1.3905,1.3933,1.3955,1.3962,1.3976,1.3997,1.4012,1.403,1.4037,1.4051,1.4057,1.4077,1.4072,1.4099,1.4089,1.4099,1.4107,1.4108,1.4109,1.4103,1.4114,1.4136,1.4138,1.4112,1.4112,1.4112,0,1.3891,1.3922,1.3944,1.3953,1.3979,1.3989,1.4,1.4018,1.403,1.4047,1.4055,1.4075,1.4085,1.4101,1.4112,1.4108,1.4138,1.4134,1.4144,1.4144,1.4149,1.4149,1.4173,1.4157,1.4157,1.4157,1.4157,0,1.3908,1.3925,1.3946,1.3959,1.3979,1.3992,1.4012,1.4023,1.404,1.4055,1.4063,1.4078,1.4093,1.411,1.4119,1.414,1.4145,1.4151,1.4153,1.415,1.4149,1.4155,1.4154,1.4158,1.4158,1.4158,1.4157,0,1.3915,1.393,1.3954,1.3977,1.3984,1.3997,1.4017,1.403,1.4042,1.4061,1.4067,1.4085,1.4105,1.4118,1.4144,1.415,1.4173,1.4175,1.4167,1.4168,1.4177,1.4176,1.4205,1.421,1.4192,1.4192,1.4192,0,1.3925,1.3938,1.3964,1.3975,1.3986,1.4004,1.4017,1.4031,1.4044,1.4067,1.4077,1.4098,1.4115,1.4147,1.4162,1.4182,1.4184,1.4193,1.4187,1.4183,1.4184,1.4182,1.4184,1.4194,1.4194,1.4194,1.4194,0,1.394,1.3947,1.3965,1.3986,1.4001,1.4017,1.4034,1.4043,1.4061,1.4074,1.4095,1.4109,1.4136,1.4156,1.4178,1.4189,1.4195,1.4196,1.42,1.4196,1.419,1.4193,1.4169,1.4195,1.4195,1.4195,1.4195,1.4195,1.3948,1.3961,1.3981,1.4001,1.4015,1.4031,1.4045,1.4059,1.4077,1.41,1.4107,1.4129,1.4148,1.4178,1.419,1.4208,1.4207,1.4212,1.4213,1.4213,1.4213,1.4188,1.4212,1.4212,1.4212,1.4212,1.4212,0,1.3963,1.3977,1.3995,1.4019,1.4035,1.404,1.4059,1.4072,1.4091,1.4109,1.4126,1.4151,1.4171,1.4189,1.421,1.4221,1.4224,1.4226,1.4224,1.4227,1.4213,1.4208,1.4223,1.4223,1.4223,1.4223,1.4223,1.4223,1.3973,1.3995,1.4004,1.4034,1.4047,1.4069,1.408,1.4095,1.4109,1.4136,1.4153,1.4165,1.4183,1.4206,1.4225,1.423,1.4237,1.4238,1.4243,1.4229,1.4228,1.4227,1.4222,1.424,1.424,1.4256,1.4256,1.4256]},{"header":{"parameterUnit":"m.s-1","parameterCategory":1,"la1":30.2991,"la2":30.254,"lo1":-89.0895,"lo2":-89.0444,"dy":0.0017,"dx":0.0017,"nx":28,"ny":28,"refTime":"2024-03-27T09:00:00:Z","depth":0,"parameterNumber":3,"parameterNumberName":"V-component_of_WINDS"},"data":[0,0,0,0,0,0,0,0,0,0,0,0,0,0,0,0,0,0,0,0,0,0,0,0,0,0,0,0,0,0,0,0,0,0,0,0,0,0,0,0,0,0,0,0,0,0,0,0,0,0,0,0,0,0,0,0,0,0,-6.637,-6.6372,0,-6.6598,-6.66,-6.6603,-6.6564,-6.656,-6.6556,-6.6553,-6.6783,-6.6793,-6.6802,0,0,0,0,0,0,0,0,0,0,0,0,0,-6.5898,-6.5907,-6.6369,-6.6372,-6.6375,-6.6597,-6.66,-6.6603,-6.6565,-6.656,-6.6555,-6.6551,-6.678,-6.6792,-6.6803,0,0,0,0,0,0,0,0,0,0,0,0,0,-6.6112,-6.591,-6.6369,-6.6383,-6.6386,-6.6597,-6.66,-6.6604,-6.6566,-6.656,-6.6554,-6.6549,-6.6776,-6.679,-6.6805,-6.7015,0,0,-6.685,-6.6856,0,0,0,0,0,0,0,0,-6.61,-6.6129,-6.6378,-6.6382,-6.6387,-6.6546,-6.6519,-6.6742,-6.6568,-6.6498,-6.6553,-6.6546,-6.6709,-6.6729,-6.6785,-6.7026,-6.7035,-6.6851,-6.686,-6.6867,-6.6871,0,0,0,0,0,0,0,-6.6085,-6.6119,-6.6459,-6.6381,-6.6387,-6.6377,-6.6401,-6.6561,-6.6634,-6.6503,-6.6501,-6.6529,-6.671,-6.6771,-6.679,-6.7039,-6.6851,-6.6864,-6.6873,-6.6879,-6.7464,-6.747,0,0,0,0,0,0,-6.6067,-6.6107,-6.6452,-6.6466,-6.6226,-6.639,-6.6417,-6.6501,-6.6632,-6.6646,-6.6534,-6.6526,-6.6748,-6.6773,-6.6798,-6.7053,-6.6866,-6.688,-6.6889,-6.7457,-6.7466,-6.7473,0,0,0,0,0,0,-6.6057,-6.6098,-6.6443,-6.6286,-6.633,-6.6405,-6.65,-6.6509,-6.6569,-6.6655,-6.6667,-6.6582,-6.6745,-6.6777,-6.6962,-6.706,-6.6887,-6.69,-6.745,-6.746,-6.7469,-6.7565,0,0,0,0,0,0,-6.6043,-6.6094,-6.6176,-6.6289,-6.6338,-6.6604,-6.6506,-6.6517,-6.6595,-6.6587,-6.6704,-6.6717,-6.6742,-6.694,-6.6976,-6.7078,-6.6912,-6.7441,-6.7454,-6.7466,-6.7553,-6.7577,-6.7597,0,0,0,0,0,-6.6027,-6.6192,-6.618,-6.6222,-6.6441,-6.661,-6.6638,-6.6665,-6.6603,-6.6685,-6.674,-6.6714,-6.7043,-6.6959,-6.7,-6.7107,-6.7435,-6.745,-6.7465,-6.7543,-6.7572,-6.7597,0,0,0,0,0,0,-6.6088,-6.6207,-6.6195,-6.6402,-6.6497,-6.6603,-6.6707,-6.6694,-6.6807,-6.6795,-6.6822,-6.6849,-6.7036,-6.709,-6.6994,-6.7317,-6.723,-6.7254,-6.7276,-6.7304,-6.7326,-6.7309,-6.6924,0,0,0,0,0,-6.6126,-6.6254,-6.6351,-6.6525,-6.6573,-6.6632,-6.6707,-6.6719,-6.6817,-6.6856,-6.6925,-6.702,-6.7146,-6.7227,-6.7347,-6.756,-6.7585,-6.7654,-6.7676,-6.7693,-6.7714,-6.7832,-6.7864,-6.7522,-6.7522,-6.7522,0,0,-6.6205,-6.6286,-6.6365,-6.6539,-6.6613,-6.6745,-6.6666,-6.6808,-6.6906,-6.6877,-6.7057,-6.7111,-6.7219,-6.7419,-6.751,-6.7469,-6.7814,-6.7713,-6.7726,-6.7738,-6.785,-6.7883,-6.7911,-6.7533,-6.7531,-6.7529,0,0,-6.6417,-6.6491,-6.6645,-6.6721,-6.6835,-6.6874,-6.6911,-6.702,-6.7055,-6.7236,-6.7217,-6.7333,-6.7548,-6.7626,-6.7694,-6.7936,-6.7916,-6.7974,-6.809,-6.8204,-6.8231,-6.8255,-6.8342,-6.8373,-6.7994,-6.7995,-6.7995,0,-6.6501,-6.67,-6.6725,-6.687,-6.6947,-6.6929,-6.7084,-6.7157,-6.7304,-6.7357,-6.7309,-6.7579,-6.765,-6.7869,-6.7928,-6.7983,-6.8026,-6.7962,-6.8225,-6.8249,-6.8272,-6.8356,-6.8389,-6.8001,-6.8,-6.8,-6.7999,0,-6.6798,-6.6936,-6.7046,-6.719,-6.7279,-6.7428,-6.7476,-6.7563,-6.7568,-6.7611,-6.7795,-6.788,-6.8017,-6.807,-6.8075,-6.829,-6.8261,-6.8219,-6.8132,-6.8311,-6.839,-6.8422,-6.801,-6.8008,-6.8006,-6.8005,0,0,-6.7056,-6.7213,-6.7253,-6.7318,-6.7443,-6.7549,-6.7697,-6.7833,-6.7908,-6.8009,-6.8135,-6.8317,-6.828,-6.8357,-6.837,-6.847,-6.8658,-6.8416,-6.8419,-6.8459,-6.8901,-6.8933,-6.8969,-6.8645,-6.8651,-6.8656,-6.8892,0,-6.7281,-6.7544,-6.7572,-6.7807,-6.7935,-6.7919,-6.8048,-6.8138,-6.8183,-6.8297,-6.8345,-6.8475,-6.8414,-6.8461,-6.8559,-6.8614,-6.8747,-6.8597,-6.8762,-6.8767,-6.8737,-6.9011,-6.9045,-6.9263,-6.8923,-6.8928,-6.8932,0,-6.7579,-6.7691,-6.7939,-6.8047,-6.8102,-6.8218,-6.8344,-6.8454,-6.8555,-6.858,-6.8667,-6.8668,-6.882,-6.8727,-6.8937,-6.8835,-6.8903,-6.894,-6.8949,-6.8967,-6.8861,-6.9036,-6.9334,-6.9367,-6.8981,-6.8977,-6.8973,0,-6.7744,-6.7956,-6.8133,-6.8189,-6.8319,-6.8401,-6.8458,-6.8554,-6.8634,-6.8744,-6.8796,-6.8922,-6.8992,-6.9089,-6.9123,-6.9052,-6.9332,-6.9241,-6.9357,-6.9357,-6.9418,-6.9414,-6.9732,-6.946,-6.946,-6.9459,-6.9458,0,-6.7993,-6.8146,-6.8209,-6.8318,-6.8489,-6.8518,-6.8686,-6.8739,-6.8825,-6.8943,-6.8936,-6.9047,-6.9085,-6.9202,-6.923,-6.94,-6.9431,-6.9455,-6.9461,-6.9457,-6.9454,-6.9503,-6.949,-6.9468,-6.9466,-6.9464,-6.9463,0,-6.8207,-6.8255,-6.8447,-6.8554,-6.8584,-6.8706,-6.8797,-6.8902,-6.8944,-6.9094,-6.9131,-6.9198,-6.9335,-6.9379,-6.9545,-6.9563,-6.9763,-6.9754,-6.9729,-6.973,-6.9845,-6.9834,-7.0206,-7.0257,-6.995,-6.9953,-6.9956,0,-6.8363,-6.8481,-6.8601,-6.8681,-6.8742,-6.887,-6.8951,-6.8984,-6.907,-6.9195,-6.9284,-6.9421,-6.9532,-6.9753,-6.9816,-6.9942,-6.9938,-7.0059,-6.9957,-6.9949,-6.9941,-6.9934,-6.9947,-7.0079,-7.0082,-7.0085,-7.0087,0,-6.8637,-6.8655,-6.8774,-6.8902,-6.9,-6.9102,-6.92,-6.9266,-6.9312,-6.9409,-6.955,-6.9637,-6.9807,-6.9943,-7.0072,-7.013,-7.0117,-7.0119,-7.0153,-7.015,-7.0132,-7.0145,-6.9783,-7.011,-7.0108,-7.0106,-7.0105,-7.0104,-6.8828,-6.8932,-6.9033,-6.9166,-6.9244,-6.9336,-6.944,-6.9496,-6.9615,-6.9757,-6.9768,-6.9922,-7.002,-7.0192,-7.0257,-7.0377,-7.0342,-7.039,-7.0403,-7.0415,-7.0425,-7.0111,-7.04,-7.0399,-7.0399,-7.0398,-7.0398,0,-6.9102,-6.9166,-6.9288,-6.9427,-6.9531,-6.951,-6.9618,-6.9707,-6.9842,-6.9936,-7.0046,-7.0208,-7.034,-7.0413,-7.0545,-7.0627,-7.0624,-7.066,-7.0655,-7.0669,-7.0448,-7.0406,-7.066,-7.066,-7.066,-7.066,-7.066,-7.066,-6.9257,-6.9432,-6.9463,-6.9677,-6.974,-6.9891,-6.9954,-7.0039,-7.0114,-7.0297,-7.0407,-7.0454,-7.0539,-7.0677,-7.0797,-7.0815,-7.0864,-7.0905,-7.0919,-7.0711,-7.0684,-7.0659,-7.062,-7.0915,-7.0915,-7.113,-7.1132,-7.1134]}]]